Simultaneous Nadir Overpasses (SNOs) Predictions

Prediction of SNOs between GOES-16 and TERRA Satellite Orbit:

Table of predicted SNOs for the next 14.0 days since TLE Epoch: 6/20/2025
Index Date Time (GOES-16) GOES-16 Lat,Lon TERRA Lat,Lon Distance(km) Time Diff (sec)
1 06/23/2025 04:19:58 -0.03,-104.72 -0.11,-104.97 28.17 80
2 06/25/2025 04:03:29 -0.03,-104.72 0.89,-100.36 495.91 80
3 06/25/2025 16:20:16 0.03,-104.74 0.13,-105.09 41.18 80
4 06/27/2025 16:03:47 0.02,-104.73 -0.88,-100.48 483.27 80
5 06/28/2025 04:23:22 -0.02,-104.72 -0.16,-105.24 60.26 80
6 06/30/2025 04:01:33 -0.02,-104.73 0.86,-100.64 464.98 80
7 06/30/2025 16:21:01 0.02,-104.74 0.15,-105.37 71.62 80
8 07/02/2025 16:01:51 0.01,-104.75 -0.82,-100.76 454.06 80
9 07/03/2025 04:24:07 -0.01,-104.74 -0.15,-105.53 89.17 80
